[[{"header":{"parameterUnit":"m.s-1","parameterCategory":2,"la1":30.2991,"la2":30.254,"lo1":-89.0895,"lo2":-89.0444,"dy":0.0017,"dx":0.0017,"nx":28,"ny":28,"refTime":"2024-05-20T21:00:00:Z","depth":"0","parameterNumber":2,"parameterNumberName":"U-component_of_CURRENTS"},"data":[0,0,0,0,0,0,0,0,0,0,0,0,0,0,0,0,0,0,0,0,0,0,0,0,0,0,0,0,0,0,0,0,0,0,0,0,0,0,0,0,0,0,0,0,0,0,0,0,0,0,0,0,0,0,0,0,0,0,-0.3503,-0.3503,0,-0.3451,-0.345,-0.3449,-0.3366,-0.3365,-0.3363,-0.3362,-0.3223,-0.3221,-0.3219,0,0,0,0,0,0,0,0,0,0,0,0,0,-0.3379,-0.3383,-0.3503,-0.3503,-0.3502,-0.3451,-0.345,-0.3449,-0.3366,-0.3365,-0.3363,-0.3361,-0.3224,-0.3221,-0.3218,0,0,0,0,0,0,0,0,0,0,0,0,0,-0.339,-0.3384,-0.3503,-0.3455,-0.3451,-0.3451,-0.345,-0.3449,-0.3367,-0.3365,-0.3362,-0.336,-0.3225,-0.3221,-0.3218,-0.3238,0,0,-0.3207,-0.3205,0,0,0,0,0,0,0,0,-0.339,-0.3395,-0.3463,-0.3459,-0.3453,-0.3414,-0.3355,-0.3374,-0.3367,-0.3398,-0.3362,-0.3359,-0.3281,-0.3273,-0.3267,-0.3232,-0.3226,-0.3207,-0.3205,-0.3203,-0.3202,0,0,0,0,0,0,0,-0.3389,-0.3395,-0.3481,-0.3463,-0.3457,-0.3384,-0.3385,-0.3358,-0.3349,-0.3395,-0.3389,-0.3385,-0.3277,-0.3271,-0.3263,-0.3224,-0.3207,-0.3204,-0.3201,-0.32,-0.3237,-0.324,0,0,0,0,0,0,-0.3409,-0.3396,-0.3483,-0.348,-0.3417,-0.3389,-0.3389,-0.3428,-0.3351,-0.3339,-0.3387,-0.3382,-0.3278,-0.3268,-0.3258,-0.3309,-0.3203,-0.32,-0.3198,-0.3234,-0.3237,-0.3241,0,0,0,0,0,0,-0.3408,-0.3419,-0.3485,-0.3434,-0.3437,-0.3395,-0.3437,-0.3428,-0.3415,-0.3347,-0.3332,-0.3383,-0.3276,-0.3263,-0.3251,-0.3301,-0.3198,-0.3195,-0.323,-0.3235,-0.3239,-0.339,0,0,0,0,0,0,-0.3405,-0.342,-0.3449,-0.3438,-0.3441,-0.351,-0.3439,-0.3428,-0.3417,-0.3409,-0.3339,-0.3324,-0.3274,-0.3257,-0.3248,-0.3294,-0.3192,-0.3226,-0.3232,-0.3238,-0.3381,-0.3399,-0.3415,0,0,0,0,0,-0.3401,-0.3454,-0.3453,-0.3462,-0.3487,-0.3512,-0.3509,-0.3466,-0.3419,-0.3441,-0.3388,-0.3326,-0.3288,-0.3257,-0.3245,-0.3292,-0.3223,-0.323,-0.3237,-0.3373,-0.3396,-0.3414,0,0,0,0,0,0,-0.3395,-0.3451,-0.3448,-0.351,-0.3522,-0.3499,-0.3502,-0.3476,-0.3452,-0.3428,-0.3356,-0.334,-0.3357,-0.3308,-0.3275,-0.3324,-0.325,-0.3255,-0.3358,-0.3378,-0.3394,-0.3332,-0.3189,0,0,0,0,0,-0.3418,-0.3486,-0.3504,-0.3552,-0.3559,-0.3532,-0.353,-0.3509,-0.3486,-0.3471,-0.343,-0.3389,-0.3382,-0.3363,-0.3348,-0.3362,-0.3254,-0.339,-0.3407,-0.3421,-0.3366,-0.3276,-0.3277,-0.3264,-0.3264,-0.3264,0,0,-0.3428,-0.3464,-0.3501,-0.3557,-0.3549,-0.3574,-0.3525,-0.3535,-0.3549,-0.3461,-0.3464,-0.3448,-0.3403,-0.3431,-0.3433,-0.3387,-0.3379,-0.343,-0.3442,-0.3377,-0.3283,-0.3283,-0.3283,-0.3269,-0.3268,-0.3267,0,0,-0.3471,-0.3515,-0.3574,-0.3592,-0.3606,-0.3603,-0.3613,-0.3609,-0.3601,-0.3625,-0.3567,-0.3579,-0.3561,-0.3542,-0.3528,-0.3627,-0.3481,-0.3633,-0.365,-0.3568,-0.3566,-0.3563,-0.3457,-0.3443,-0.3631,-0.3631,-0.3631,0,-0.3463,-0.3518,-0.3588,-0.3626,-0.3591,-0.3622,-0.3609,-0.3658,-0.3652,-0.3611,-0.3646,-0.3606,-0.3617,-0.3591,-0.3653,-0.3663,-0.3557,-0.3579,-0.3584,-0.3578,-0.3572,-0.3464,-0.3447,-0.3639,-0.3638,-0.3637,-0.3637,0,-0.3538,-0.3553,-0.3575,-0.3635,-0.3652,-0.3634,-0.3689,-0.3707,-0.3707,-0.3712,-0.3707,-0.3742,-0.3676,-0.3748,-0.3739,-0.371,-0.3631,-0.3624,-0.352,-0.3581,-0.3466,-0.3445,-0.3651,-0.3648,-0.3646,-0.3644,0,0,-0.3528,-0.3599,-0.3593,-0.3539,-0.3602,-0.3589,-0.3657,-0.3642,-0.358,-0.3705,-0.3611,-0.3746,-0.372,-0.3702,-0.3711,-0.3696,-0.3649,-0.3643,-0.3635,-0.3514,-0.3408,-0.3251,-0.3211,-0.3615,-0.3612,-0.3609,-0.3353,0,-0.3498,-0.3492,-0.3565,-0.3511,-0.3459,-0.3496,-0.3514,-0.3539,-0.3555,-0.3516,-0.3612,-0.358,-0.3721,-0.3671,-0.3694,-0.3634,-0.3592,-0.3714,-0.3382,-0.3371,-0.3205,-0.3182,-0.3086,-0.2837,-0.3331,-0.3328,-0.3325,0,-0.3508,-0.3459,-0.3392,-0.3293,-0.3274,-0.3297,-0.3187,-0.3226,-0.3259,-0.326,-0.3296,-0.3335,-0.3381,-0.3481,-0.3428,-0.3479,-0.3436,-0.3428,-0.3417,-0.3178,-0.3172,-0.2852,-0.2778,-0.2791,-0.3291,-0.3294,-0.3296,0,-0.3354,-0.3315,-0.3205,-0.3186,-0.3151,-0.311,-0.3111,-0.3125,-0.3093,-0.31,-0.304,-0.3102,-0.3078,-0.3106,-0.3161,-0.325,-0.3039,-0.3151,-0.2964,-0.2952,-0.2752,-0.2726,-0.2617,-0.3047,-0.3048,-0.3048,-0.3049,0,-0.3249,-0.3166,-0.3117,-0.305,-0.2903,-0.2948,-0.2838,-0.285,-0.2831,-0.2751,-0.2894,-0.2811,-0.2973,-0.2913,-0.3007,-0.2883,-0.2905,-0.2907,-0.2855,-0.2809,-0.2792,-0.2697,-0.2747,-0.3039,-0.3041,-0.3043,-0.3044,0,-0.3177,-0.3133,-0.2992,-0.2878,-0.285,-0.277,-0.2742,-0.2658,-0.2649,-0.2541,-0.254,-0.2545,-0.2476,-0.2576,-0.2546,-0.2605,-0.2499,-0.2499,-0.2425,-0.2369,-0.2261,-0.2323,-0.2032,-0.1984,-0.2264,-0.2258,-0.2253,0,-0.3144,-0.3058,-0.2892,-0.2807,-0.278,-0.2688,-0.2627,-0.2604,-0.2531,-0.2373,-0.2293,-0.2178,-0.2116,-0.2009,-0.2066,-0.2076,-0.219,-0.1959,-0.215,-0.217,-0.2204,-0.2262,-0.2252,-0.1967,-0.196,-0.1955,-0.195,0,-0.3039,-0.2995,-0.2875,-0.2705,-0.2604,-0.2512,-0.243,-0.2335,-0.2258,-0.2137,-0.1942,-0.1867,-0.1729,-0.1688,-0.165,-0.1691,-0.1909,-0.184,-0.1878,-0.1937,-0.1969,-0.1926,-0.2228,-0.1901,-0.1906,-0.1909,-0.1912,-0.1914,-0.2954,-0.2861,-0.2695,-0.2542,-0.2439,-0.2313,-0.2185,-0.2104,-0.1937,-0.1713,-0.1679,-0.1525,-0.1468,-0.1427,-0.1419,-0.137,-0.15,-0.1448,-0.151,-0.156,-0.1534,-0.1696,-0.1311,-0.1312,-0.1314,-0.1315,-0.1316,0,-0.2772,-0.2681,-0.2541,-0.2312,-0.2174,-0.2184,-0.2,-0.1851,-0.1618,-0.1538,-0.1381,-0.1267,-0.1186,-0.1192,-0.1145,-0.1112,-0.1169,-0.1115,-0.1241,-0.1245,-0.1379,-0.1392,-0.0983,-0.0983,-0.0983,-0.0983,-0.0983,-0.0983,-0.2645,-0.2449,-0.237,-0.2059,-0.1958,-0.1685,-0.1554,-0.1407,-0.1307,-0.1129,-0.1069,-0.1049,-0.1044,-0.1108,-0.106,-0.102,-0.1081,-0.0979,-0.1051,-0.1254,-0.1295,-0.1334,-0.1359,-0.095,-0.095,-0.0894,-0.0894,-0.0894]},{"header":{"parameterUnit":"m.s-1","parameterCategory":2,"la1":30.2991,"la2":30.254,"lo1":-89.0895,"lo2":-89.0444,"dy":0.0017,"dx":0.0017,"nx":28,"ny":28,"refTime":"2024-05-20T21:00:00:Z","depth":"0","parameterNumber":3,"parameterNumberName":"V-component_of_CURRENTS"},"data":[0,0,0,0,0,0,0,0,0,0,0,0,0,0,0,0,0,0,0,0,0,0,0,0,0,0,0,0,0,0,0,0,0,0,0,0,0,0,0,0,0,0,0,0,0,0,0,0,0,0,0,0,0,0,0,0,0,0,0.0159,0.0159,0,0.0231,0.0232,0.0232,0.0265,0.0265,0.0265,0.0265,0.0335,0.0337,0.0339,0,0,0,0,0,0,0,0,0,0,0,0,0,0.0036,0.0038,0.0159,0.0159,0.016,0.0231,0.0232,0.0233,0.0265,0.0265,0.0265,0.0265,0.0334,0.0337,0.0339,0,0,0,0,0,0,0,0,0,0,0,0,0,0.0097,0.0039,0.0158,0.0185,0.0188,0.023,0.0232,0.0233,0.0265,0.0265,0.0265,0.0265,0.0334,0.0337,0.034,0.0362,0,0,0.0349,0.035,0,0,0,0,0,0,0,0,0.0094,0.0102,0.018,0.0183,0.0186,0.0238,0.0214,0.0276,0.0265,0.0237,0.0265,0.0265,0.0302,0.0308,0.0323,0.0365,0.0368,0.0349,0.0351,0.0352,0.0353,0,0,0,0,0,0,0,0.0089,0.0099,0.0188,0.0181,0.0185,0.0188,0.0197,0.0226,0.027,0.0239,0.0241,0.0248,0.0304,0.032,0.0325,0.037,0.0349,0.0352,0.0353,0.0355,0.0464,0.0465,0,0,0,0,0,0,0.0081,0.0095,0.0186,0.019,0.0138,0.019,0.02,0.0222,0.027,0.0277,0.0248,0.025,0.0315,0.0321,0.0327,0.0369,0.0352,0.0355,0.0357,0.0463,0.0464,0.0466,0,0,0,0,0,0,0.0078,0.0089,0.0183,0.0142,0.0154,0.0193,0.0217,0.0224,0.0235,0.0277,0.0284,0.0252,0.0315,0.0323,0.0362,0.0371,0.0356,0.0359,0.0462,0.0463,0.0465,0.0445,0,0,0,0,0,0,0.0074,0.0088,0.0094,0.0142,0.0156,0.0198,0.0218,0.0225,0.0239,0.0241,0.0282,0.0289,0.0315,0.0358,0.0365,0.0375,0.0361,0.046,0.0463,0.0464,0.0444,0.0446,0.0447,0,0,0,0,0,0.007,0.0066,0.0095,0.0105,0.0167,0.0198,0.0205,0.0231,0.0239,0.0241,0.0281,0.0287,0.0376,0.0361,0.037,0.0381,0.0459,0.0462,0.0464,0.0443,0.0445,0.0447,0,0,0,0,0,0,0.0006,0.0071,0.0102,0.0118,0.0156,0.0202,0.0194,0.0226,0.0259,0.0254,0.0301,0.0312,0.035,0.0371,0.0353,0.0421,0.0419,0.0423,0.04,0.0402,0.0404,0.0374,0.0364,0,0,0,0,0,0.0,0.002,0.0083,0.0093,0.0105,0.0153,0.0166,0.019,0.0227,0.0241,0.0282,0.0324,0.0369,0.0388,0.0426,0.0459,0.0465,0.0474,0.0475,0.0476,0.046,0.0509,0.0513,0.0474,0.0474,0.0474,0,0,-0.002,0.0015,0.0028,0.0081,0.0105,0.0114,0.0159,0.0168,0.0189,0.0243,0.0275,0.0327,0.038,0.0424,0.0442,0.044,0.0486,0.0479,0.0479,0.0462,0.0512,0.0515,0.0519,0.0476,0.0475,0.0475,0,0,-0.0086,-0.0024,-0.0046,-0.0016,0.0019,0.007,0.0072,0.0127,0.0161,0.0208,0.0258,0.0321,0.0377,0.0431,0.0462,0.0494,0.0492,0.0502,0.0483,0.0532,0.0535,0.0538,0.0522,0.0524,0.0502,0.0502,0.0502,0,-0.0124,-0.0125,-0.005,-0.0071,-0.0054,0.0045,0.0025,0.0084,0.0152,0.0185,0.0209,0.0332,0.0384,0.0451,0.0469,0.0496,0.0496,0.047,0.0532,0.0535,0.0538,0.0522,0.0524,0.0501,0.0502,0.0502,0.0502,0,-0.0206,-0.0208,-0.0225,-0.0195,-0.0157,-0.016,-0.0062,-0.0013,0.0057,0.0124,0.0209,0.0304,0.0372,0.0414,0.0452,0.0507,0.0488,0.0527,0.052,0.054,0.0522,0.0524,0.05,0.0501,0.0501,0.0501,0,0,-0.0297,-0.0287,-0.0295,-0.0295,-0.0223,-0.0195,-0.0145,-0.0063,-0.0024,0.0082,0.0129,0.0256,0.0318,0.0358,0.0431,0.0489,0.052,0.0509,0.0512,0.0477,0.0572,0.0597,0.0601,0.0567,0.0568,0.0569,0.0539,0,-0.0393,-0.0464,-0.0413,-0.0432,-0.0446,-0.0327,-0.0279,-0.018,-0.0077,0.0004,0.014,0.0214,0.0296,0.0332,0.0406,0.0495,0.053,0.0521,0.057,0.057,0.058,0.0608,0.063,0.061,0.0541,0.0542,0.0542,0,-0.0497,-0.052,-0.0588,-0.0535,-0.0528,-0.051,-0.0394,-0.0336,-0.0186,-0.0118,-0.0007,0.0104,0.0216,0.0285,0.0426,0.041,0.0475,0.0546,0.0548,0.0578,0.0602,0.0587,0.0617,0.0723,0.0546,0.0545,0.0545,0,-0.0596,-0.0626,-0.0677,-0.0668,-0.0601,-0.0589,-0.0525,-0.0388,-0.0315,-0.0197,-0.0141,0.0005,0.008,0.0202,0.0372,0.0385,0.0512,0.0549,0.0624,0.0623,0.0655,0.0657,0.0784,0.063,0.063,0.0631,0.0631,0,-0.0704,-0.0735,-0.0735,-0.0755,-0.0759,-0.0684,-0.0635,-0.0561,-0.0443,-0.0357,-0.0217,-0.0127,0.0068,0.0195,0.0324,0.0477,0.047,0.0611,0.0632,0.0647,0.0648,0.0753,0.0786,0.0629,0.063,0.063,0.063,0,-0.0798,-0.0813,-0.0849,-0.0827,-0.0812,-0.0807,-0.0691,-0.063,-0.0553,-0.0447,-0.0413,-0.0234,-0.0082,0.0106,0.0294,0.0411,0.0614,0.0606,0.0579,0.0601,0.0775,0.0804,0.0892,0.095,0.0664,0.0665,0.0666,0,-0.0855,-0.0902,-0.0904,-0.089,-0.0882,-0.0847,-0.0789,-0.0696,-0.0626,-0.0487,-0.0441,-0.0288,-0.0131,0.0123,0.0342,0.0533,0.0635,0.0652,0.0713,0.0786,0.0834,0.0843,0.0887,0.0722,0.0723,0.0724,0.0725,0,-0.094,-0.095,-0.0966,-0.0949,-0.0917,-0.0855,-0.0791,-0.0767,-0.0645,-0.0574,-0.0458,-0.034,-0.0078,0.018,0.0422,0.0546,0.0721,0.0675,0.0783,0.0915,0.0901,0.0967,0.0691,0.0732,0.0731,0.0731,0.0731,0.073,-0.0984,-0.1007,-0.1017,-0.0982,-0.0932,-0.0873,-0.0837,-0.0766,-0.0696,-0.0565,-0.0468,-0.0238,0.008,0.0443,0.0571,0.083,0.0797,0.0922,0.0948,0.0948,0.1031,0.0742,0.0804,0.0804,0.0804,0.0804,0.0803,0,-0.103,-0.1034,-0.1016,-0.098,-0.0918,-0.0882,-0.0818,-0.0772,-0.0717,-0.0515,-0.0383,0.006,0.0355,0.0654,0.0984,0.1114,0.1139,0.1165,0.1199,0.1233,0.1011,0.1046,0.1127,0.1127,0.1126,0.1126,0.1126,0.1126,-0.1047,-0.1062,-0.1043,-0.0969,-0.0923,-0.0852,-0.0826,-0.0773,-0.063,-0.0322,0.0003,0.0294,0.0671,0.1063,0.1346,0.1365,0.1478,0.1436,0.1503,0.1371,0.1351,0.1332,0.1377,0.1525,0.1526,0.1725,0.1727,0.1729]}],[{"header":{"parameterUnit":"m.s-1","parameterCategory":2,"la1":30.2991,"la2":30.254,"lo1":-89.0895,"lo2":-89.0444,"dy":0.0017,"dx":0.0017,"nx":28,"ny":28,"refTime":"2024-05-20T21:00:00:Z","depth":"2","parameterNumber":2,"parameterNumberName":"U-component_of_CURRENTS"},"data":[0,0,0,0,0,0,0,0,0,0,0,0,0,0,0,0,0,0,0,0,0,0,0,0,0,0,0,0,0,0,0,0,0,0,0,0,0,0,0,0,0,0,0,0,0,0,0,0,0,0,0,0,0,0,0,0,0,0,-0.2134,-0.2135,0,-0.2157,-0.2157,-0.2156,-0.211,-0.211,-0.2109,-0.2109,-0.1966,-0.1962,-0.1959,0,0,0,0,0,0,0,0,0,0,0,0,0,-0.204,-0.2041,-0.2134,-0.2135,-0.2136,-0.2157,-0.2157,-0.2156,-0.211,-0.211,-0.2109,-0.2108,-0.1967,-0.1963,-0.1959,0,0,0,0,0,0,0,0,0,0,0,0,0,-0.2064,-0.2041,-0.2134,-0.2124,-0.2124,-0.2157,-0.2157,-0.2156,-0.2111,-0.211,-0.2109,-0.2108,-0.1968,-0.1963,-0.1958,-0.1944,0,0,-0.1943,-0.1941,0,0,0,0,0,0,0,0,-0.2063,-0.2066,-0.2124,-0.2125,-0.2125,-0.2139,-0.2072,-0.208,-0.2111,-0.2105,-0.2109,-0.2108,-0.2016,-0.2007,-0.2,-0.1938,-0.1931,-0.1943,-0.194,-0.1938,-0.1936,0,0,0,0,0,0,0,-0.2061,-0.2065,-0.2132,-0.2126,-0.2126,-0.2116,-0.2117,-0.2073,-0.2053,-0.2105,-0.2104,-0.2124,-0.2013,-0.2005,-0.1996,-0.1929,-0.1943,-0.1938,-0.1935,-0.1933,-0.1919,-0.1922,0,0,0,0,0,0,-0.2081,-0.2064,-0.2132,-0.2134,-0.2103,-0.2119,-0.212,-0.2127,-0.2057,-0.205,-0.2125,-0.2122,-0.2014,-0.2002,-0.1991,-0.2108,-0.1938,-0.1933,-0.193,-0.1917,-0.192,-0.1923,0,0,0,0,0,0,-0.2078,-0.2086,-0.2131,-0.2108,-0.2115,-0.2122,-0.213,-0.2128,-0.2133,-0.2076,-0.2063,-0.2135,-0.2013,-0.1998,-0.1983,-0.2097,-0.1931,-0.1926,-0.1914,-0.1918,-0.1921,-0.2253,0,0,0,0,0,0,-0.2075,-0.2085,-0.2101,-0.2109,-0.2117,-0.2192,-0.2132,-0.2129,-0.2151,-0.2147,-0.208,-0.2066,-0.2011,-0.1992,-0.1979,-0.2087,-0.1922,-0.1911,-0.1916,-0.192,-0.2239,-0.2268,-0.2293,0,0,0,0,0,-0.2072,-0.2093,-0.2101,-0.2111,-0.2137,-0.2196,-0.2199,-0.2194,-0.2153,-0.2186,-0.2131,-0.2068,-0.2013,-0.199,-0.1974,-0.2084,-0.1908,-0.1914,-0.192,-0.2227,-0.2262,-0.2292,0,0,0,0,0,0,-0.206,-0.2092,-0.21,-0.2131,-0.2185,-0.2193,-0.2213,-0.2208,-0.219,-0.2173,-0.2093,-0.2077,-0.2106,-0.2029,-0.2005,-0.2086,-0.1953,-0.1956,-0.2192,-0.2224,-0.2251,-0.2182,-0.1918,0,0,0,0,0,-0.2071,-0.2071,-0.2141,-0.2153,-0.2195,-0.2206,-0.2225,-0.2236,-0.2226,-0.2217,-0.2181,-0.2131,-0.2116,-0.2117,-0.2073,-0.2117,-0.1974,-0.2172,-0.22,-0.2224,-0.2153,-0.205,-0.2061,-0.1942,-0.1942,-0.1942,0,0,-0.2048,-0.2078,-0.2069,-0.2149,-0.2173,-0.2254,-0.2212,-0.2264,-0.2316,-0.2202,-0.224,-0.2211,-0.2137,-0.2198,-0.2207,-0.2157,-0.22,-0.2231,-0.2253,-0.2166,-0.2057,-0.2068,-0.2078,-0.1946,-0.1945,-0.1945,0,0,-0.2061,-0.2062,-0.2112,-0.2161,-0.2249,-0.2278,-0.2307,-0.2361,-0.2379,-0.2438,-0.2366,-0.2395,-0.2375,-0.2369,-0.2354,-0.2486,-0.2329,-0.2495,-0.2606,-0.2514,-0.2521,-0.2526,-0.2439,-0.2433,-0.2533,-0.2534,-0.2535,0,-0.2067,-0.211,-0.2138,-0.2225,-0.2258,-0.23,-0.2384,-0.2425,-0.2465,-0.2453,-0.2486,-0.2446,-0.2456,-0.2467,-0.2569,-0.2554,-0.2446,-0.2514,-0.255,-0.2551,-0.255,-0.2457,-0.2447,-0.2551,-0.2549,-0.2547,-0.2546,0,-0.2131,-0.2176,-0.2206,-0.2316,-0.238,-0.2432,-0.2528,-0.2568,-0.2605,-0.2624,-0.2652,-0.2677,-0.262,-0.2714,-0.271,-0.2731,-0.2642,-0.2588,-0.2476,-0.2582,-0.2479,-0.2462,-0.2575,-0.2569,-0.2564,-0.256,0,0,-0.2093,-0.2234,-0.2233,-0.2265,-0.2415,-0.244,-0.256,-0.2631,-0.2598,-0.2727,-0.2689,-0.2834,-0.2796,-0.277,-0.2785,-0.2798,-0.2832,-0.273,-0.2717,-0.2655,-0.2607,-0.2518,-0.2489,-0.2781,-0.2778,-0.2776,-0.2566,0,-0.2138,-0.2264,-0.2343,-0.2414,-0.2476,-0.2535,-0.26,-0.2656,-0.2697,-0.2671,-0.2739,-0.272,-0.2831,-0.2823,-0.2861,-0.2791,-0.2784,-0.289,-0.2493,-0.248,-0.2399,-0.2466,-0.2342,-0.2138,-0.2547,-0.2544,-0.2542,0,-0.2178,-0.2236,-0.2358,-0.239,-0.242,-0.2487,-0.2487,-0.2553,-0.2565,-0.2584,-0.2602,-0.2591,-0.2654,-0.2715,-0.266,-0.2711,-0.2667,-0.2649,-0.2637,-0.2391,-0.2356,-0.2077,-0.2089,-0.251,-0.2513,-0.2515,-0.2517,0,-0.2074,-0.2206,-0.2274,-0.2299,-0.2407,-0.2433,-0.2473,-0.2511,-0.2507,-0.2498,-0.2457,-0.248,-0.2462,-0.2443,-0.2483,-0.2538,-0.2362,-0.2406,-0.2269,-0.2262,-0.1983,-0.1955,-0.2295,-0.2295,-0.2296,-0.2296,-0.2297,0,-0.2051,-0.206,-0.2214,-0.2221,-0.2225,-0.2335,-0.2311,-0.2342,-0.2352,-0.2289,-0.2375,-0.231,-0.2388,-0.2325,-0.2369,-0.2256,-0.2251,-0.2243,-0.2186,-0.2106,-0.2093,-0.2249,-0.2246,-0.2288,-0.229,-0.2292,-0.2293,0,-0.1903,-0.2039,-0.2079,-0.2177,-0.2197,-0.2192,-0.2238,-0.2199,-0.2222,-0.2137,-0.2135,-0.2148,-0.2079,-0.2114,-0.2051,-0.2066,-0.2,-0.1945,-0.1863,-0.1802,-0.1992,-0.201,-0.1759,-0.1754,-0.1749,-0.1746,-0.1742,0,-0.1823,-0.1871,-0.1984,-0.2016,-0.2069,-0.2077,-0.2088,-0.2149,-0.2097,-0.2026,-0.1953,-0.1888,-0.1818,-0.1707,-0.171,-0.1665,-0.1798,-0.1514,-0.162,-0.1959,-0.193,-0.1954,-0.1977,-0.1411,-0.1405,-0.1401,-0.1397,0,-0.1682,-0.1774,-0.1828,-0.1846,-0.1904,-0.189,-0.1884,-0.1837,-0.1855,-0.1796,-0.1678,-0.1631,-0.1515,-0.1423,-0.1367,-0.1355,-0.1534,-0.1417,-0.1709,-0.1588,-0.1618,-0.1596,-0.163,-0.1356,-0.136,-0.1363,-0.1366,-0.1367,-0.1585,-0.16,-0.1696,-0.1676,-0.1753,-0.1696,-0.1615,-0.1602,-0.1532,-0.142,-0.1421,-0.1314,-0.1297,-0.1158,-0.1103,-0.1082,-0.1209,-0.121,-0.1228,-0.125,-0.1269,-0.1293,-0.0973,-0.0974,-0.0976,-0.0977,-0.0979,0,-0.1469,-0.1514,-0.1482,-0.1498,-0.1455,-0.1515,-0.147,-0.138,-0.1278,-0.1227,-0.1144,-0.0988,-0.0906,-0.0913,-0.0808,-0.0798,-0.0848,-0.0785,-0.0863,-0.0901,-0.0936,-0.0946,-0.0559,-0.0558,-0.0557,-0.0556,0,0,-0.1457,-0.1408,-0.1347,-0.1204,-0.1187,-0.1112,-0.1078,-0.1014,-0.0969,-0.0873,-0.0819,-0.0855,-0.0855,-0.0699,-0.0667,-0.0591,-0.0747,-0.0565,-0.0895,-0.1022,-0.1056,-0.1165,-0.1219,0,0,0,0,0]},{"header":{"parameterUnit":"m.s-1","parameterCategory":2,"la1":30.2991,"la2":30.254,"lo1":-89.0895,"lo2":-89.0444,"dy":0.0017,"dx":0.0017,"nx":28,"ny":28,"refTime":"2024-05-20T21:00:00:Z","depth":"2","parameterNumber":3,"parameterNumberName":"V-component_of_CURRENTS"},"data":[0,0,0,0,0,0,0,0,0,0,0,0,0,0,0,0,0,0,0,0,0,0,0,0,0,0,0,0,0,0,0,0,0,0,0,0,0,0,0,0,0,0,0,0,0,0,0,0,0,0,0,0,0,0,0,0,0,0,-0.0208,-0.0205,0,0.0009,0.0011,0.0013,0.0069,0.0068,0.0067,0.0066,0.0193,0.0197,0.0201,0,0,0,0,0,0,0,0,0,0,0,0,0,-0.0408,-0.0406,-0.0208,-0.0205,-0.0202,0.0008,0.0011,0.0013,0.0069,0.0068,0.0067,0.0066,0.0192,0.0197,0.0202,0,0,0,0,0,0,0,0,0,0,0,0,0,-0.0275,-0.0406,-0.0208,-0.0145,-0.0136,0.0008,0.0011,0.0014,0.0069,0.0068,0.0066,0.0065,0.019,0.0196,0.0203,0.0267,0,0,0.0222,0.0224,0,0,0,0,0,0,0,0,-0.0283,-0.0269,-0.0157,-0.0149,-0.0139,0.0015,-0.0012,0.0096,0.0069,-0.0015,0.0066,0.0065,0.013,0.0141,0.0178,0.0273,0.0278,0.0222,0.0226,0.0229,0.0231,0,0,0,0,0,0,0,-0.0293,-0.0276,-0.0128,-0.0154,-0.0142,-0.007,-0.0054,0.0009,0.0056,-0.0007,-0.0001,0.0032,0.0133,0.0172,0.0181,0.028,0.0222,0.0228,0.0231,0.0234,0.0422,0.0423,0,0,0,0,0,0,-0.0315,-0.0286,-0.0134,-0.0121,-0.021,-0.0065,-0.0048,-0.0038,0.0058,0.0074,0.0033,0.0034,0.0162,0.0174,0.0186,0.0261,0.0229,0.0235,0.0238,0.0421,0.0422,0.0424,0,0,0,0,0,0,-0.0321,-0.0305,-0.0143,-0.0193,-0.0166,-0.0061,-0.0049,-0.0032,-0.0006,0.009,0.0102,0.0041,0.0162,0.0177,0.0239,0.0266,0.0237,0.0243,0.0419,0.0421,0.0423,0.0414,0,0,0,0,0,0,-0.0328,-0.0309,-0.0318,-0.0195,-0.0164,-0.0073,-0.0046,-0.0027,0.002,0.0023,0.0102,0.0113,0.0162,0.023,0.0246,0.0274,0.0248,0.0418,0.042,0.0422,0.0413,0.0416,0.0418,0,0,0,0,0,-0.0336,-0.0353,-0.032,-0.0301,-0.0178,-0.0072,-0.005,0.0018,0.0021,0.0035,0.0092,0.011,0.0255,0.0236,0.0254,0.0285,0.0417,0.042,0.0422,0.0412,0.0415,0.0418,0,0,0,0,0,0,-0.0432,-0.0344,-0.0307,-0.0292,-0.0191,-0.0061,-0.0041,0.0009,0.0069,0.0061,0.0132,0.0149,0.021,0.0249,0.0226,0.0345,0.0337,0.0344,0.0324,0.0327,0.0329,0.0285,0.0253,0,0,0,0,0,-0.0457,-0.0464,-0.0331,-0.0321,-0.0274,-0.016,-0.0113,-0.0058,0.0022,0.0046,0.0111,0.0175,0.0243,0.0281,0.0339,0.0411,0.041,0.0441,0.0443,0.0445,0.0422,0.0461,0.0464,0.0433,0.0433,0.0433,0,0,-0.0492,-0.0442,-0.0445,-0.0344,-0.0266,-0.0209,-0.0138,-0.0069,-0.0022,0.0051,0.0112,0.0181,0.0259,0.0338,0.037,0.0372,0.0451,0.0449,0.045,0.0425,0.0464,0.0467,0.0469,0.0435,0.0434,0.0434,0,0,-0.0549,-0.0515,-0.0523,-0.0457,-0.0343,-0.0259,-0.0246,-0.0111,-0.0053,0.0038,0.0093,0.0177,0.0284,0.0357,0.0404,0.0455,0.0454,0.0471,0.0462,0.0502,0.0504,0.0506,0.049,0.0491,0.0484,0.0484,0.0484,0,-0.058,-0.0578,-0.0502,-0.048,-0.0427,-0.0294,-0.0259,-0.0174,-0.0038,0.0012,0.0046,0.0215,0.0296,0.0387,0.042,0.0461,0.0452,0.0446,0.0503,0.0505,0.0507,0.049,0.0491,0.0483,0.0483,0.0483,0.0483,0,-0.0632,-0.0624,-0.0619,-0.0557,-0.0489,-0.0441,-0.03,-0.0234,-0.0141,-0.0046,0.0071,0.0202,0.0293,0.0355,0.0414,0.0479,0.0456,0.0491,0.0487,0.0509,0.0491,0.0491,0.0483,0.0483,0.0483,0.0483,0,0,-0.0699,-0.0662,-0.0659,-0.0637,-0.0526,-0.0463,-0.0392,-0.0261,-0.0215,-0.0069,0.0001,0.0173,0.0238,0.0294,0.0387,0.0455,0.0492,0.0478,0.0481,0.0445,0.0524,0.0552,0.0555,0.053,0.0531,0.0531,0.0498,0,-0.074,-0.0741,-0.0699,-0.0672,-0.0641,-0.0526,-0.0463,-0.0344,-0.0222,-0.0128,0.0029,0.0126,0.0216,0.0274,0.0352,0.0461,0.0495,0.0493,0.0521,0.0521,0.0532,0.0559,0.0538,0.0511,0.0498,0.0499,0.0499,0,-0.0788,-0.078,-0.0778,-0.0713,-0.0685,-0.0658,-0.0534,-0.0456,-0.0307,-0.0218,-0.011,0.0006,0.0136,0.0212,0.0358,0.0345,0.0414,0.0496,0.0497,0.0522,0.0552,0.0494,0.0513,0.05,0.05,0.05,0.05,0,-0.0858,-0.0824,-0.0828,-0.0812,-0.0724,-0.07,-0.0635,-0.0498,-0.0412,-0.0292,-0.0227,-0.0086,0.0011,0.0117,0.031,0.0319,0.0453,0.0486,0.0556,0.0556,0.0542,0.0542,0.0549,0.0549,0.0549,0.0549,0.055,0,-0.0915,-0.0918,-0.0874,-0.0883,-0.0856,-0.0774,-0.0717,-0.0639,-0.0519,-0.0429,-0.0294,-0.0194,-0.0002,0.0127,0.0254,0.0408,0.0398,0.0538,0.0561,0.0539,0.0538,0.0538,0.0537,0.0548,0.0548,0.0549,0.0549,0,-0.1,-0.0977,-0.0978,-0.0921,-0.0897,-0.0883,-0.077,-0.0712,-0.062,-0.0509,-0.0472,-0.0277,-0.0118,0.006,0.0249,0.035,0.0489,0.0536,0.0475,0.0493,0.0558,0.0558,0.0578,0.0579,0.058,0.058,0.0581,0,-0.1048,-0.1067,-0.1023,-0.1001,-0.0984,-0.094,-0.0882,-0.0777,-0.0709,-0.0536,-0.0484,-0.0311,-0.0148,0.0107,0.0301,0.0469,0.05,0.0536,0.0578,0.0547,0.0567,0.0565,0.0563,0.0536,0.0536,0.0536,0.0536,0,-0.1129,-0.112,-0.1105,-0.1063,-0.1023,-0.0967,-0.0897,-0.0858,-0.0718,-0.0626,-0.047,-0.0336,-0.0083,0.014,0.0355,0.0457,0.051,0.0545,0.0539,0.0549,0.0511,0.0529,0.0528,0.0537,0.0537,0.0537,0.0537,0.0537,-0.1173,-0.1177,-0.1138,-0.109,-0.1041,-0.098,-0.0931,-0.0848,-0.0745,-0.0572,-0.0464,-0.0246,-0.0057,0.0282,0.0418,0.0536,0.0548,0.0586,0.0584,0.0582,0.0601,0.0569,0.0605,0.0605,0.0605,0.0605,0.0606,0,-0.1185,-0.1175,-0.1146,-0.1076,-0.101,-0.0989,-0.0906,-0.084,-0.0729,-0.0553,-0.0391,-0.0148,0.0096,0.0279,0.0478,0.0594,0.0576,0.0596,0.056,0.0558,0.0557,0.0574,0.0571,0.0571,0.0571,0.0571,0,0,-0.1185,-0.1161,-0.1137,-0.1038,-0.0992,-0.0924,-0.088,-0.0787,-0.0663,-0.0479,-0.0306,-0.008,0.0137,0.0273,0.0405,0.0498,0.0491,0.0492,0.051,0.0449,0.0446,0.0543,0.0567,0,0,0,0,0]}],[{"header":{"parameterUnit":"m.s-1","parameterCategory":2,"la1":30.2991,"la2":30.254,"lo1":-89.0895,"lo2":-89.0444,"dy":0.0017,"dx":0.0017,"nx":28,"ny":28,"refTime":"2024-05-20T21:00:00:Z","depth":"4","parameterNumber":2,"parameterNumberName":"U-component_of_CURRENTS"},"data":[0,0,0,0,0,0,0,0,0,0,0,0,0,0,0,0,0,0,0,0,0,0,0,0,0,0,0,0,0,0,0,0,0,0,0,0,0,0,0,0,0,0,0,0,0,0,0,0,0,0,0,0,0,0,0,0,0,0,-0.061,-0.061,0,-0.0641,-0.0641,-0.0641,-0.0668,-0.0669,-0.067,-0.0671,-0.0689,-0.0688,-0.0688,0,0,0,0,0,0,0,0,0,0,0,0,0,-0.061,-0.0609,-0.0609,-0.061,-0.0611,-0.0641,-0.0641,-0.0641,-0.0668,-0.0669,-0.067,-0.0671,-0.0689,-0.0688,-0.0688,0,0,0,0,0,0,0,0,0,0,0,0,0,-0.0618,-0.0609,-0.0609,-0.0632,-0.0635,-0.0641,-0.0641,-0.0641,-0.0668,-0.0669,-0.067,-0.0671,-0.0689,-0.0688,-0.0688,-0.0663,0,0,-0.0687,-0.0687,0,0,0,0,0,0,0,0,-0.0617,-0.0617,-0.0628,-0.0631,-0.0634,-0.0657,-0.0648,-0.0649,-0.0668,-0.065,-0.0671,-0.0672,-0.0679,-0.068,-0.0676,-0.0664,-0.0664,-0.0687,-0.0687,-0.0687,-0.0686,0,0,0,0,0,0,0,-0.0616,-0.0616,-0.0617,-0.0629,-0.0632,-0.0654,-0.0656,-0.0649,-0.0653,-0.0652,-0.0655,-0.0666,-0.068,-0.0676,-0.0677,-0.0665,-0.0687,-0.0687,-0.0686,-0.0686,-0.0766,-0.0768,0,0,0,0,0,0,-0.0619,-0.0615,-0.0616,-0.0618,-0.0634,-0.0653,-0.0655,-0.0644,-0.0654,-0.0658,-0.0665,-0.0668,-0.0676,-0.0677,-0.0677,-0.0773,-0.0687,-0.0686,-0.0686,-0.0763,-0.0766,-0.0769,0,0,0,0,0,0,-0.0619,-0.0618,-0.0615,-0.0623,-0.0625,-0.0652,-0.064,-0.0644,-0.0667,-0.0665,-0.0669,-0.0688,-0.0677,-0.0678,-0.0685,-0.077,-0.0686,-0.0686,-0.0761,-0.0764,-0.0768,-0.0885,0,0,0,0,0,0,-0.0618,-0.0617,-0.0604,-0.0622,-0.0625,-0.0645,-0.064,-0.0644,-0.0673,-0.0677,-0.0685,-0.0687,-0.0678,-0.0686,-0.0685,-0.0768,-0.0685,-0.0758,-0.0762,-0.0766,-0.0878,-0.0892,-0.0904,0,0,0,0,0,-0.0617,-0.0618,-0.0603,-0.0603,-0.0607,-0.0647,-0.065,-0.067,-0.0674,-0.0692,-0.0686,-0.0688,-0.0715,-0.0686,-0.0685,-0.0769,-0.0756,-0.0761,-0.0766,-0.0872,-0.0889,-0.0903,0,0,0,0,0,0,-0.063,-0.0622,-0.0605,-0.0605,-0.063,-0.0654,-0.0671,-0.0683,-0.0691,-0.0701,-0.0687,-0.0687,-0.075,-0.0722,-0.069,-0.0806,-0.0749,-0.0754,-0.083,-0.0846,-0.0858,-0.0838,-0.0685,0,0,0,0,0,-0.0618,-0.0606,-0.0617,-0.0621,-0.063,-0.0647,-0.0663,-0.0689,-0.0704,-0.0711,-0.0708,-0.0721,-0.0765,-0.0771,-0.0795,-0.0819,-0.0786,-0.0883,-0.0896,-0.0907,-0.0891,-0.0888,-0.0898,-0.0786,-0.0786,-0.0786,0,0,-0.062,-0.062,-0.061,-0.0621,-0.0633,-0.0658,-0.066,-0.0709,-0.0738,-0.0709,-0.0733,-0.0768,-0.0785,-0.0843,-0.0869,-0.0829,-0.093,-0.0914,-0.0923,-0.09,-0.0894,-0.0905,-0.0914,-0.079,-0.0789,-0.0788,0,0,-0.0631,-0.0621,-0.0609,-0.0642,-0.0679,-0.069,-0.0711,-0.0742,-0.0762,-0.0786,-0.081,-0.0846,-0.0883,-0.0906,-0.0928,-0.1006,-0.1012,-0.1076,-0.1109,-0.1108,-0.1117,-0.1124,-0.1129,-0.1135,-0.1067,-0.1067,-0.1067,0,-0.0627,-0.0635,-0.0622,-0.0648,-0.0687,-0.0707,-0.0744,-0.0761,-0.0795,-0.0823,-0.081,-0.09,-0.0899,-0.0989,-0.1037,-0.1033,-0.1056,-0.1053,-0.1124,-0.1129,-0.1134,-0.1137,-0.1143,-0.1073,-0.1072,-0.1072,-0.1071,0,-0.0646,-0.0665,-0.0684,-0.0698,-0.0723,-0.0789,-0.081,-0.086,-0.0882,-0.0889,-0.098,-0.0975,-0.103,-0.1071,-0.1077,-0.1166,-0.1182,-0.1154,-0.1081,-0.1153,-0.1152,-0.1155,-0.1082,-0.108,-0.1078,-0.1076,0,0,-0.0611,-0.0677,-0.0687,-0.0731,-0.0783,-0.0823,-0.0878,-0.0938,-0.1,-0.1013,-0.108,-0.1136,-0.115,-0.1173,-0.1212,-0.1205,-0.1262,-0.1219,-0.1216,-0.1217,-0.1307,-0.1206,-0.12,-0.1286,-0.1287,-0.1287,-0.1304,0,-0.0639,-0.0712,-0.0728,-0.0816,-0.0862,-0.0927,-0.0972,-0.103,-0.1069,-0.113,-0.1144,-0.1199,-0.1187,-0.1248,-0.1251,-0.1276,-0.1275,-0.1261,-0.1241,-0.1239,-0.1134,-0.12,-0.1289,-0.1306,-0.1306,-0.1307,-0.1307,0,-0.0643,-0.071,-0.0796,-0.0914,-0.0938,-0.0988,-0.1119,-0.1168,-0.1242,-0.1277,-0.1329,-0.133,-0.1366,-0.1322,-0.1344,-0.1366,-0.1349,-0.1327,-0.1326,-0.1181,-0.1142,-0.121,-0.1312,-0.1312,-0.1312,-0.1311,-0.1311,0,-0.0633,-0.0757,-0.0842,-0.0892,-0.1006,-0.108,-0.1143,-0.1219,-0.1244,-0.1366,-0.1393,-0.1441,-0.1458,-0.1449,-0.1398,-0.1405,-0.1397,-0.1375,-0.1256,-0.125,-0.1281,-0.1273,-0.1358,-0.1358,-0.1357,-0.1357,-0.1357,0,-0.0651,-0.0719,-0.0869,-0.0923,-0.1015,-0.1113,-0.1185,-0.1277,-0.1361,-0.1381,-0.1463,-0.148,-0.1494,-0.148,-0.1444,-0.1362,-0.1421,-0.1263,-0.1243,-0.1337,-0.1334,-0.1285,-0.1277,-0.1358,-0.1358,-0.1358,-0.1358,0,-0.0572,-0.0684,-0.0775,-0.0948,-0.0992,-0.1052,-0.1131,-0.1181,-0.1322,-0.1369,-0.1397,-0.1493,-0.1496,-0.1477,-0.145,-0.1386,-0.1323,-0.1273,-0.1391,-0.1377,-0.1174,-0.1172,-0.115,-0.1147,-0.1144,-0.1141,-0.1139,0,-0.0533,-0.0588,-0.0738,-0.0765,-0.0832,-0.0929,-0.0959,-0.1108,-0.1155,-0.1342,-0.1355,-0.1413,-0.1449,-0.1352,-0.1352,-0.1279,-0.124,-0.1226,-0.118,-0.1168,-0.1151,-0.1154,-0.1155,-0.1135,-0.1134,-0.1133,-0.1132,0,-0.045,-0.0504,-0.0575,-0.0637,-0.0687,-0.0732,-0.0832,-0.0854,-0.1054,-0.1156,-0.1264,-0.1282,-0.1295,-0.1273,-0.1233,-0.1171,-0.1251,-0.1194,-0.1199,-0.1156,-0.1149,-0.1135,-0.1141,-0.1122,-0.1123,-0.1124,-0.1125,0,-0.0365,-0.037,-0.0468,-0.0506,-0.0553,-0.0603,-0.0647,-0.0758,-0.0832,-0.1083,-0.109,-0.1201,-0.128,-0.1215,-0.1169,-0.1114,-0.1075,-0.1035,-0.1047,-0.1059,-0.1014,-0.0991,-0.0898,0,0,0,0,0,-0.0296,-0.0304,-0.0333,-0.0406,-0.0446,-0.0499,-0.0604,-0.0679,-0.0859,-0.0888,-0.101,-0.1022,-0.103,-0.1069,-0.098,-0.1078,-0.1052,-0.097,-0.1007,-0.1065,-0.1077,-0.1028,0,0,0,0,0,0,-0.0256,-0.0277,-0.0309,-0.0333,-0.0367,-0.0433,-0.0506,-0.0621,-0.0671,-0.0839,-0.083,-0.0942,-0.0929,-0.105,-0.0955,-0.0957,-0.0954,-0.1011,-0.1008,-0.1058,-0.1069,-0.1078,-0.1032,0,0,0,0,0]},{"header":{"parameterUnit":"m.s-1","parameterCategory":2,"la1":30.2991,"la2":30.254,"lo1":-89.0895,"lo2":-89.0444,"dy":0.0017,"dx":0.0017,"nx":28,"ny":28,"refTime":"2024-05-20T21:00:00:Z","depth":"4","parameterNumber":3,"parameterNumberName":"V-component_of_CURRENTS"},"data":[0,0,0,0,0,0,0,0,0,0,0,0,0,0,0,0,0,0,0,0,0,0,0,0,0,0,0,0,0,0,0,0,0,0,0,0,0,0,0,0,0,0,0,0,0,0,0,0,0,0,0,0,0,0,0,0,0,0,-0.0519,-0.0518,0,-0.0499,-0.05,-0.05,-0.0491,-0.049,-0.0489,-0.0488,-0.0496,-0.0497,-0.0498,0,0,0,0,0,0,0,0,0,0,0,0,0,-0.0526,-0.0526,-0.0519,-0.0518,-0.0517,-0.0499,-0.05,-0.05,-0.0491,-0.049,-0.0489,-0.0488,-0.0496,-0.0497,-0.0498,0,0,0,0,0,0,0,0,0,0,0,0,0,-0.0524,-0.0527,-0.0519,-0.0504,-0.0502,-0.0499,-0.05,-0.05,-0.0491,-0.049,-0.0489,-0.0488,-0.0496,-0.0497,-0.0498,-0.0529,0,0,-0.0503,-0.0503,0,0,0,0,0,0,0,0,-0.0524,-0.0525,-0.0507,-0.0505,-0.0502,-0.0489,-0.0504,-0.0508,-0.0491,-0.0504,-0.0488,-0.0487,-0.0492,-0.0494,-0.0504,-0.053,-0.053,-0.0503,-0.0504,-0.0504,-0.0505,0,0,0,0,0,0,0,-0.0524,-0.0525,-0.0519,-0.0506,-0.0503,-0.049,-0.0489,-0.0506,-0.0511,-0.0503,-0.05,-0.0485,-0.0492,-0.0502,-0.0504,-0.053,-0.0503,-0.0504,-0.0505,-0.0505,-0.0571,-0.0572,0,0,0,0,0,0,-0.0513,-0.0526,-0.052,-0.0518,-0.0501,-0.049,-0.049,-0.0501,-0.051,-0.0508,-0.0486,-0.0484,-0.0501,-0.0502,-0.0504,-0.0515,-0.0504,-0.0505,-0.0506,-0.057,-0.0571,-0.0572,0,0,0,0,0,0,-0.0514,-0.0514,-0.0521,-0.0513,-0.0512,-0.049,-0.0503,-0.0501,-0.0511,-0.0496,-0.0496,-0.0496,-0.05,-0.0502,-0.0522,-0.0516,-0.0506,-0.0507,-0.0569,-0.057,-0.0571,-0.0553,0,0,0,0,0,0,-0.0515,-0.0515,-0.0527,-0.0513,-0.0511,-0.0526,-0.0503,-0.0501,-0.0499,-0.0498,-0.0505,-0.0504,-0.0499,-0.052,-0.0523,-0.0517,-0.0508,-0.0568,-0.0569,-0.0571,-0.0552,-0.0553,-0.0554,0,0,0,0,0,-0.0515,-0.0535,-0.0528,-0.0527,-0.0527,-0.0526,-0.0526,-0.0511,-0.0501,-0.0515,-0.0516,-0.0504,-0.0533,-0.0522,-0.0526,-0.052,-0.0567,-0.0569,-0.0571,-0.0552,-0.0553,-0.0554,0,0,0,0,0,0,-0.054,-0.0535,-0.0527,-0.0544,-0.0535,-0.0521,-0.0525,-0.0518,-0.0532,-0.0535,-0.0521,-0.0522,-0.0533,-0.0542,-0.053,-0.0547,-0.0546,-0.0549,-0.0531,-0.0532,-0.0533,-0.0502,-0.051,0,0,0,0,0,-0.0551,-0.0571,-0.0552,-0.0567,-0.056,-0.0546,-0.0544,-0.0543,-0.0542,-0.0548,-0.0548,-0.0552,-0.0547,-0.0551,-0.056,-0.0578,-0.0531,-0.0577,-0.0578,-0.0579,-0.0559,-0.0479,-0.0469,-0.0579,-0.0579,-0.0579,0,0,-0.0564,-0.0561,-0.0572,-0.0573,-0.0564,-0.0565,-0.0546,-0.0554,-0.0559,-0.0548,-0.0566,-0.0561,-0.0555,-0.0564,-0.057,-0.0568,-0.0528,-0.0582,-0.0582,-0.0561,-0.048,-0.0469,-0.0458,-0.058,-0.058,-0.058,0,0,-0.0589,-0.0596,-0.0614,-0.0611,-0.0601,-0.0592,-0.0595,-0.0593,-0.0595,-0.0618,-0.0594,-0.0582,-0.0609,-0.0579,-0.057,-0.0588,-0.0536,-0.06,-0.0576,-0.05,-0.0488,-0.0478,-0.041,-0.0394,-0.0599,-0.0599,-0.0599,0,-0.0601,-0.0622,-0.0618,-0.0624,-0.0617,-0.0603,-0.0611,-0.0614,-0.0623,-0.0607,-0.063,-0.0599,-0.0608,-0.0555,-0.0564,-0.0585,-0.0532,-0.0566,-0.0495,-0.0484,-0.0473,-0.0406,-0.0388,-0.0599,-0.0599,-0.0599,-0.0599,0,-0.0631,-0.0646,-0.0652,-0.0657,-0.0655,-0.0666,-0.0652,-0.0655,-0.0657,-0.0641,-0.0612,-0.0612,-0.0575,-0.0585,-0.0585,-0.051,-0.0493,-0.05,-0.0479,-0.046,-0.0392,-0.0374,-0.0598,-0.0598,-0.0598,-0.0598,0,0,-0.0657,-0.0672,-0.0675,-0.0673,-0.0676,-0.0672,-0.0673,-0.0647,-0.0611,-0.0627,-0.0569,-0.0572,-0.0537,-0.0525,-0.0506,-0.0453,-0.0353,-0.0446,-0.0442,-0.0356,-0.0171,-0.02,-0.0182,-0.0333,-0.033,-0.0327,-0.0154,0,-0.0676,-0.0699,-0.0703,-0.0712,-0.0713,-0.0695,-0.0682,-0.0658,-0.0635,-0.058,-0.0542,-0.05,-0.0522,-0.0493,-0.0437,-0.0368,-0.0303,-0.0399,-0.0222,-0.0217,-0.0225,-0.0161,-0.0317,-0.014,-0.0136,-0.0133,-0.013,0,-0.0696,-0.0708,-0.0735,-0.0717,-0.0712,-0.0719,-0.0664,-0.0654,-0.0568,-0.0543,-0.0472,-0.043,-0.0341,-0.0377,-0.022,-0.0273,-0.0217,-0.0175,-0.0167,-0.0181,-0.0211,-0.0165,-0.0096,-0.0099,-0.0101,-0.0104,-0.0106,0,-0.0705,-0.0718,-0.0741,-0.0744,-0.0731,-0.0727,-0.071,-0.0644,-0.0612,-0.0506,-0.0457,-0.034,-0.0287,-0.0184,-0.0115,-0.0144,0.0056,0.0026,0.006,0.0059,0.0025,0.0012,0.0151,0.015,0.015,0.0149,0.0149,0,-0.0716,-0.0726,-0.075,-0.0764,-0.076,-0.0741,-0.0714,-0.0666,-0.0586,-0.0523,-0.0436,-0.0357,-0.0235,-0.0119,-0.0053,0.0067,0.0113,0.0097,0.0115,0.0023,0.0008,0.0039,0.0024,0.0156,0.0154,0.0153,0.0152,0,-0.0718,-0.0741,-0.0762,-0.0771,-0.0775,-0.0772,-0.0745,-0.0697,-0.0628,-0.0538,-0.0501,-0.0345,-0.0192,-0.0073,0.0099,0.0133,0.0252,0.0276,0.0186,0.019,0.0193,0.0176,0.0365,0.0365,0.0366,0.0366,0.0367,0,-0.0716,-0.0736,-0.0781,-0.079,-0.0805,-0.0803,-0.0784,-0.0731,-0.0681,-0.0535,-0.0478,-0.031,-0.0208,0.0047,0.0144,0.0313,0.0299,0.0369,0.0271,0.0223,0.0222,0.0204,0.0186,0.0368,0.0368,0.0368,0.0368,0,-0.0704,-0.074,-0.0763,-0.0794,-0.0803,-0.0796,-0.0775,-0.0745,-0.0658,-0.0602,-0.0423,-0.028,-0.0106,0.0059,0.0189,0.0291,0.0335,0.0375,0.0373,0.0282,0.0229,0.0223,0.0205,0.037,0.037,0.037,0.037,0,-0.0691,-0.0711,-0.0753,-0.0767,-0.0785,-0.0767,-0.0767,-0.069,-0.0636,-0.0491,-0.0437,-0.0241,-0.0129,0.0049,0.0168,0.0274,0.0275,0.0283,0.0286,0.0285,0.018,0.0096,0.0246,0,0,0,0,0,-0.0657,-0.0676,-0.0702,-0.0725,-0.0744,-0.0752,-0.073,-0.0719,-0.0664,-0.0535,-0.0482,-0.0318,-0.0099,0.0006,0.011,0.014,0.0266,0.026,0.0269,0.0382,0.038,0.0265,0,0,0,0,0,0,-0.0632,-0.0666,-0.069,-0.0682,-0.0693,-0.0699,-0.0693,-0.066,-0.0587,-0.0518,-0.0394,-0.0318,-0.0107,-0.0157,0.0108,0.0141,0.0154,0.0364,0.0366,0.0384,0.0381,0.0379,0.026,0,0,0,0,0]}]]